Location: Borojevi?i
(45.0486°N, 16.2297°E)
Time: 21:46:44
(UTC+00:00)

Cosmos 1441 Rocket - Pass Details

Date: 08 August 2020
Orbit: 497 x 540 km, 81.1° (Epoch: 22 September)

Event Time Altitude Azimuth Distance (km) Brightness Sun altitude
Rises 19:31:59 0° 193° (SSW) 2,622 6.5 -12.9°
Reaches altitude 10° 19:34:08 10° 195° (SSW) 1,733 5.6 -13.2°
Maximum altitude 19:37:56 75° 280° (W) 532 3.3 -13.7°
Drops below altitude 10° 19:41:43 10° 7° (N) 1,725 6.3 -14.3°
Sets 19:43:50 0° 10° (N) 2,610 7.2 -14.5°
